Weather History for Huntingburg, IN

Change the Weather History Date:

Sunday, February 10, 2013

  Actual Average Record
Temperature  
Mean Temperature 46 °F -  
Max Temperature 53 °F 43 °F 66 °F (1999)
Min Temperature 39 °F 28 °F 6 °F (2011)
Degree Days  
Heating Degree Days 19    
Moisture  
Dew Point 39 °F    
Average Humidity 73    
Maximum Humidity 88    
Minimum Humidity 53    
Precipitation  
Precipitation 0.23 in - - ()
Sea Level Pressure  
Sea Level Pressure 29.93 in    
Wind  
Wind Speed 12 mph (SSE)    
Max Wind Speed 25 mph    
Max Gust Speed 34 mph    
Visibility 10 miles    
Events      
Averages and records for this station are not official NWS values.
T = Trace of Precipitation, MM = Missing Value Source: NWS Daily Summary

Daily Weather History Graph

Daily Weather History Graph

Search for Another Location

Airport:

Trip Planner

Search our weather history database for the weather conditions in past years. The results will help you decide how hot, cold, wet, or windy it might be!

Date:

Astronomy

Feb. 10, 2013 Rise Set
Actual Time 7:43 AM EST 6:20 PM EST
Civil Twilight 7:16 AM EST 6:48 PM EST
Nautical Twilight 6:45 AM EST 7:19 PM EST
Astronomical Twilight 6:14 AM EST 7:50 PM EST
Moon 7:34 AM EST (2/10) 7:09 PM EST (2/10)
Length of Visible Light 11h 32m
Length of Day
10h 37m
New Moon, 0% of the Moon is Illuminated
Feb 10
New Moon
Feb 17
First Quarter
Feb 25
Full
Mar 4
Last Quarter
Mar 11
New

Hourly Weather History & Observations

Time (EST) Temp. Windchill Dew Point Humidity Pressure Visibility Wind Dir Wind Speed Gust Speed Precip Events Conditions
12:15 AM 39.2 °F 33.6 °F 24.8 °F 56% 30.14 in 10.0 mi ESE 8.1 mph - N/A   Clear
12:35 AM 39.2 °F 33.0 °F 24.8 °F 56% 30.13 in 10.0 mi ESE 9.2 mph - N/A   Clear
12:55 AM 39.2 °F 34.2 °F 26.6 °F 61% 30.14 in 10.0 mi SE 6.9 mph - N/A   Clear
1:35 AM 39.2 °F 34.2 °F 26.6 °F 61% 30.14 in 10.0 mi SE 6.9 mph - N/A   Partly Cloudy
1:55 AM 39.2 °F 33.6 °F 26.6 °F 61% 30.13 in 10.0 mi ESE 8.1 mph - N/A   Partly Cloudy
2:35 AM 39.2 °F 34.2 °F 26.6 °F 61% 30.11 in 10.0 mi ESE 6.9 mph - N/A   Scattered Clouds
2:55 AM 39.2 °F 33.0 °F 26.6 °F 61% 30.12 in 10.0 mi ESE 9.2 mph - N/A   Partly Cloudy
3:15 AM 39.2 °F 32.0 °F 26.6 °F 61% 30.10 in 10.0 mi ESE 11.5 mph - N/A   Partly Cloudy
3:55 AM 39.2 °F 34.2 °F 26.6 °F 61% 30.09 in 10.0 mi SE 6.9 mph - N/A   Clear
4:15 AM 39.2 °F 35.0 °F 26.6 °F 61% 30.09 in 10.0 mi ESE 5.8 mph - N/A   Clear
4:55 AM 41.0 °F 37.1 °F 26.6 °F 57% 30.08 in 10.0 mi SE 5.8 mph - N/A   Mostly Cloudy
5:15 AM 42.8 °F 38.6 °F 26.6 °F 53% 30.09 in 10.0 mi South 6.9 mph - N/A   Mostly Cloudy
5:35 AM 42.8 °F 38.0 °F 28.4 °F 57% 30.09 in 10.0 mi SSE 8.1 mph - N/A   Mostly Cloudy
5:55 AM 44.6 °F 39.7 °F 30.2 °F 57% 30.09 in 10.0 mi South 9.2 mph - N/A   Overcast
6:15 AM 42.8 °F 38.6 °F 33.8 °F 70% 30.08 in 9.0 mi SSE 6.9 mph - 0.01 in   Overcast
6:35 AM 42.8 °F 37.5 °F 35.6 °F 76% 30.07 in 10.0 mi SSE 9.2 mph - 0.02 in   Overcast
7:15 AM 42.8 °F 35.4 °F 37.4 °F 81% 30.05 in 10.0 mi SE 15.0 mph - N/A   Mostly Cloudy
7:35 AM 42.8 °F 35.8 °F 37.4 °F 81% 30.04 in 10.0 mi SE 13.8 mph - N/A   Overcast
7:55 AM 42.8 °F 35.8 °F 37.4 °F 81% 30.04 in 10.0 mi SE 13.8 mph 18.4 mph N/A   Overcast
8:15 AM 44.6 °F 38.1 °F 37.4 °F 76% 30.04 in 10.0 mi ESE 13.8 mph - N/A   Overcast
8:35 AM 44.6 °F 38.8 °F 37.4 °F 76% 30.04 in 10.0 mi SE 11.5 mph - N/A   Mostly Cloudy
9:15 AM 46.4 °F 41.5 °F 37.4 °F 71% 30.05 in 10.0 mi SE 10.4 mph - N/A   Mostly Cloudy
9:35 AM 46.4 °F 41.1 °F 37.4 °F 71% 30.04 in 10.0 mi SE 11.5 mph - N/A   Scattered Clouds
9:55 AM 46.4 °F 40.4 °F 37.4 °F 71% 30.02 in 10.0 mi SE 13.8 mph - N/A   Scattered Clouds
10:15 AM 46.4 °F 40.1 °F 37.4 °F 71% 30.00 in 10.0 mi SE 15.0 mph 19.6 mph N/A   Mostly Cloudy
10:35 AM 48.2 °F - 37.4 °F 66% 29.99 in 10.0 mi SE 12.7 mph 18.4 mph N/A   Partly Cloudy
10:55 AM 48.2 °F - 37.4 °F 66% 29.98 in 10.0 mi SE 12.7 mph - N/A   Clear
11:15 AM 50.0 °F - 37.4 °F 62% 29.97 in 10.0 mi SSE 12.7 mph 20.7 mph N/A   Clear
11:35 AM 51.8 °F - 37.4 °F 58% 29.95 in 10.0 mi SE 13.8 mph 20.7 mph N/A   Partly Cloudy
11:55 AM 51.8 °F - 37.4 °F 58% 29.92 in 10.0 mi SE 12.7 mph 20.7 mph N/A   Partly Cloudy
12:35 PM 53.6 °F - 37.4 °F 54% 29.90 in 10.0 mi SSE 15.0 mph 21.9 mph N/A   Clear
12:55 PM 53.6 °F - 37.4 °F 54% 29.90 in 10.0 mi SSE 15.0 mph 23.0 mph N/A   Mostly Cloudy
1:15 PM 51.8 °F - 37.4 °F 58% 29.94 in 10.0 mi SSW 13.8 mph 18.4 mph N/A   Overcast
1:35 PM 48.2 °F - 39.2 °F 71% 29.93 in 10.0 mi South 10.4 mph 19.6 mph 0.04 in   Overcast
1:55 PM 48.2 °F - 41.0 °F 76% 29.92 in 10.0 mi South 11.5 mph - 0.13 in   Overcast
2:15 PM 48.2 °F - 42.8 °F 82% 29.88 in 10.0 mi SSE 17.3 mph - 0.05 in   Overcast
2:35 PM 48.2 °F - 42.8 °F 82% 29.81 in 10.0 mi SE 25.3 mph 33.4 mph 0.08 in   Overcast
2:55 PM 48.2 °F - 44.6 °F 87% 29.79 in 10.0 mi SSE 23.0 mph 34.5 mph 0.08 in   Scattered Clouds
3:15 PM 48.2 °F - 44.6 °F 87% 29.78 in 10.0 mi SSE 21.9 mph 31.1 mph N/A   Clear
3:35 PM 50.0 °F - 44.6 °F 82% 29.81 in 10.0 mi SSE 15.0 mph 27.6 mph N/A   Clear
3:55 PM 51.8 °F - 44.6 °F 76% 29.80 in 10.0 mi SSE 13.8 mph 24.2 mph N/A   Scattered Clouds
4:15 PM 51.8 °F - 46.4 °F 82% 29.78 in 10.0 mi SSE 20.7 mph 26.5 mph N/A   Mostly Cloudy
4:35 PM 51.8 °F - 46.4 °F 82% 29.78 in 10.0 mi SSE 17.3 mph 27.6 mph N/A   Overcast
4:56 PM 51.8 °F - 46.4 °F 82% 29.79 in 10.0 mi SSE 17.3 mph 25.3 mph N/A   Overcast
5:15 PM 51.8 °F - 46.4 °F 82% 29.79 in 10.0 mi South 17.3 mph 25.3 mph N/A   Overcast
5:35 PM 51.8 °F - 46.4 °F 82% 29.79 in 10.0 mi South 21.9 mph 32.2 mph N/A   Overcast
5:55 PM 51.8 °F - 46.4 °F 82% 29.78 in 10.0 mi South 21.9 mph 33.4 mph N/A   Overcast
6:15 PM 51.8 °F - 46.4 °F 82% 29.77 in 10.0 mi SSE 17.3 mph 27.6 mph N/A   Overcast
6:35 PM 51.8 °F - 46.4 °F 82% 29.77 in 10.0 mi South 23.0 mph 31.1 mph N/A   Overcast
6:55 PM 51.8 °F - 46.4 °F 82% 29.78 in 10.0 mi South 21.9 mph 33.4 mph N/A   Overcast
7:15 PM 51.8 °F - 46.4 °F 82% 29.79 in 10.0 mi South 19.6 mph 28.8 mph N/A   Overcast
7:35 PM 51.8 °F - 46.4 °F 82% 29.80 in 10.0 mi South 19.6 mph 27.6 mph N/A   Overcast
7:55 PM 51.8 °F - 46.4 °F 82% 29.80 in 10.0 mi South 17.3 mph 23.0 mph N/A   Overcast
8:15 PM 51.8 °F - 46.4 °F 82% 29.79 in 10.0 mi South 16.1 mph 21.9 mph N/A   Overcast
8:35 PM 51.8 °F - 46.4 °F 82% 29.79 in 10.0 mi South 18.4 mph 23.0 mph N/A   Overcast
9:15 PM 51.8 °F - 46.4 °F 82% 29.79 in 10.0 mi South 16.1 mph 23.0 mph N/A   Overcast
9:35 PM 51.8 °F - 46.4 °F 82% 29.79 in 10.0 mi South 13.8 mph 20.7 mph N/A   Overcast
9:55 PM 51.8 °F - 46.4 °F 82% 29.79 in 10.0 mi South 19.6 mph 24.2 mph N/A   Overcast
10:15 PM 51.8 °F - 46.4 °F 82% 29.80 in 10.0 mi South 13.8 mph - N/A   Overcast
10:35 PM 51.8 °F - 48.2 °F 88% 29.80 in 10.0 mi South 13.8 mph - N/A   Overcast
10:55 PM 51.8 °F - 48.2 °F 88% 29.80 in 10.0 mi South 15.0 mph 20.7 mph N/A   Overcast
11:15 PM 51.8 °F - 48.2 °F 88% 29.80 in 10.0 mi South 13.8 mph - N/A   Overcast
11:35 PM 53.6 °F - 48.2 °F 82% 29.79 in 10.0 mi South 15.0 mph 23.0 mph N/A   Overcast
11:55 PM 53.6 °F - 48.2 °F 82% 29.79 in 10.0 mi South 17.3 mph 21.9 mph N/A   Overcast